Multibeam Report for FK140418


Ship Name: Falkor
Chief Scientist: Dunn, Robert
University of Hawaii
Source Organization: UNOLS R2R
Start Date: 2014-04-18
End Date: 2014-04-20


View ISO Metadata

Visit the full NCEI Bathymetry Viewer


Multibeam Bathymetry

Cruise Details

Project: Deeper Views, Leg A (Hidden Structure)
Instrument: Kongsberg EM302 and EM710

Data Quality

Number of Files: 99
Number of Records: 345516
BATHYMETRY DATA Quantity Percentage
Number of Beams 144208352 100%
Number of Good Beams 137843733 95.59%
Number of Zero Beams 0 0%
Number of Flagged Beams 6364619 4.41%

Navigation Totals

Total Time: 84.2942 hours
Total Track Length: 1573.2764 km
Average Speed: 18.664 km/hr (10.0778 knots)

Cruise Bounds

Northern Extent: 21.314478
Southern Extent: 20.233007
Western Extent: -157.88545
Eastern Extent: -156.57695

Limits

Minimum Sonar Depth 2.5528 Maximum Sonar Depth 8.2085
Minimum Altitude 10.3942 Maximum Altitude 3850.6003
Minimum Depth 8.2247 Maximum Depth 4175.2427

File Information

Full Resolution Bathymetry as collected (raw): 96

Files File Size Description
0000_20140416_194630_FK140418_EM302.all.mb58.gz 2.78MB Kongsberg multibeam vendor format
0001_20140418_205134_FK140418_EM302.all.mb58.gz 352.97MB Kongsberg multibeam vendor format
0002_20140418_215132_FK140418_EM302.all.mb58.gz 380.05MB Kongsberg multibeam vendor format
0003_20140418_225132_FK140418_EM302.all.mb58.gz 61.10MB Kongsberg multibeam vendor format
0004_20140418_235132_FK140418_EM302.all.mb58.gz 53.27MB Kongsberg multibeam vendor format
0005_20140419_005133_FK140418_EM302.all.mb58.gz 113.82MB Kongsberg multibeam vendor format
0006_20140419_015134_FK140418_EM302.all.mb58.gz 112.27MB Kongsberg multibeam vendor format
0007_20140419_025133_FK140418_EM302.all.mb58.gz 51.47MB Kongsberg multibeam vendor format
0008_20140419_035139_FK140418_EM302.all.mb58.gz 38.42MB Kongsberg multibeam vendor format
0009_20140419_045139_FK140418_EM302.all.mb58.gz 97.35MB Kongsberg multibeam vendor format
0010_20140419_055135_FK140418_EM302.all.mb58.gz 113.44MB Kongsberg multibeam vendor format
0011_20140419_065133_FK140418_EM302.all.mb58.gz 120.98MB Kongsberg multibeam vendor format
0012_20140419_075134_FK140418_EM302.all.mb58.gz 109.10MB Kongsberg multibeam vendor format
0013_20140419_085135_FK140418_EM302.all.mb58.gz 53.13MB Kongsberg multibeam vendor format
0014_20140419_095140_FK140418_EM302.all.mb58.gz 42.98MB Kongsberg multibeam vendor format
0015_20140419_105134_FK140418_EM302.all.mb58.gz 106.33MB Kongsberg multibeam vendor format
0016_20140419_115136_FK140418_EM302.all.mb58.gz 128.88MB Kongsberg multibeam vendor format
0017_20140419_125134_FK140418_EM302.all.mb58.gz 130.67MB Kongsberg multibeam vendor format
0018_20140419_135135_FK140418_EM302.all.mb58.gz 109.85MB Kongsberg multibeam vendor format
0019_20140419_145136_FK140418_EM302.all.mb58.gz 54.86MB Kongsberg multibeam vendor format
0020_20140419_155136_FK140418_EM302.all.mb58.gz 56.63MB Kongsberg multibeam vendor format
0021_20140419_165136_FK140418_EM302.all.mb58.gz 121.42MB Kongsberg multibeam vendor format
0022_20140419_175135_FK140418_EM302.all.mb58.gz 158.84MB Kongsberg multibeam vendor format
0023_20140419_185135_FK140418_EM302.all.mb58.gz 28.37MB Kongsberg multibeam vendor format
0023_20140419_194415_FK140418_EM302.all.mb58.gz 130.51MB Kongsberg multibeam vendor format
0024_20140419_204414_FK140418_EM302.all.mb58.gz 51.61MB Kongsberg multibeam vendor format
0025_20140419_214421_FK140418_EM302.all.mb58.gz 36.62MB Kongsberg multibeam vendor format
0026_20140419_224421_FK140418_EM302.all.mb58.gz 91.32MB Kongsberg multibeam vendor format
0027_20140419_234414_FK140418_EM302.all.mb58.gz 156.06MB Kongsberg multibeam vendor format
0028_20140420_004415_FK140418_EM302.all.mb58.gz 228.44MB Kongsberg multibeam vendor format
0029_20140420_014414_FK140418_EM302.all.mb58.gz 198.21MB Kongsberg multibeam vendor format
0030_20140420_024414_FK140418_EM302.all.mb58.gz 105.83MB Kongsberg multibeam vendor format
0031_20140420_034416_FK140418_EM302.all.mb58.gz 37.87MB Kongsberg multibeam vendor format
0032_20140420_044415_FK140418_EM302.all.mb58.gz 39.19MB Kongsberg multibeam vendor format
0033_20140420_054415_FK140418_EM302.all.mb58.gz 148.83MB Kongsberg multibeam vendor format
0034_20140420_064415_FK140418_EM302.all.mb58.gz 122.59MB Kongsberg multibeam vendor format
0035_20140420_074415_FK140418_EM302.all.mb58.gz 90.50MB Kongsberg multibeam vendor format
0036_20140420_084418_FK140418_EM302.all.mb58.gz 110.86MB Kongsberg multibeam vendor format
0037_20140420_094417_FK140418_EM302.all.mb58.gz 132.98MB Kongsberg multibeam vendor format
0038_20140420_104415_FK140418_EM302.all.mb58.gz 164.83MB Kongsberg multibeam vendor format
0039_20140420_114415_FK140418_EM302.all.mb58.gz 175.45MB Kongsberg multibeam vendor format
0040_20140420_124415_FK140418_EM302.all.mb58.gz 140.03MB Kongsberg multibeam vendor format
0041_20140420_134416_FK140418_EM302.all.mb58.gz 138.79MB Kongsberg multibeam vendor format
0042_20140420_144416_FK140418_EM302.all.mb58.gz 167.72MB Kongsberg multibeam vendor format
0043_20140420_154416_FK140418_EM302.all.mb58.gz 186.67MB Kongsberg multibeam vendor format
0044_20140420_164417_FK140418_EM302.all.mb58.gz 142.28MB Kongsberg multibeam vendor format
0045_20140420_174417_FK140418_EM302.all.mb58.gz 107.41MB Kongsberg multibeam vendor format
0046_20140420_184420_FK140418_EM302.all.mb58.gz 47.34MB Kongsberg multibeam vendor format
0047_20140420_194416_FK140418_EM302.all.mb58.gz 60.26MB Kongsberg multibeam vendor format
0048_20140420_204416_FK140418_EM302.all.mb58.gz 378.88MB Kongsberg multibeam vendor format
0049_20140420_214416_FK140418_EM302.all.mb58.gz 207.70MB Kongsberg multibeam vendor format
0050_20140420_224418_FK140418_EM302.all.mb58.gz 162.96MB Kongsberg multibeam vendor format
0051_20140420_234417_FK140418_EM302.all.mb58.gz 58.57MB Kongsberg multibeam vendor format
0000_20140416_194356_FK140418_EM710.all.mb58.gz 5.10MB Kongsberg multibeam vendor format
0001_20140418_205135_FK140418_EM710.all.mb58.gz 412.26MB Kongsberg multibeam vendor format
0002_20140418_215134_FK140418_EM710.all.mb58.gz 494.26MB Kongsberg multibeam vendor format
0003_20140418_225136_FK140418_EM710.all.mb58.gz 18.00MB Kongsberg multibeam vendor format
0004_20140419_003552_FK140418_EM710.all.mb58.gz 58.67MB Kongsberg multibeam vendor format
0005_20140419_013551_FK140418_EM710.all.mb58.gz 61.16MB Kongsberg multibeam vendor format
0006_20140419_023553_FK140418_EM710.all.mb58.gz 28.37MB Kongsberg multibeam vendor format
0007_20140419_050112_FK140418_EM710.all.mb58.gz 59.94MB Kongsberg multibeam vendor format
0008_20140419_060110_FK140418_EM710.all.mb58.gz 65.04MB Kongsberg multibeam vendor format
0009_20140419_070111_FK140418_EM710.all.mb58.gz 66.47MB Kongsberg multibeam vendor format
0010_20140419_080109_FK140418_EM710.all.mb58.gz 58.56MB Kongsberg multibeam vendor format
0011_20140419_090110_FK140418_EM710.all.mb58.gz 318.7KB Kongsberg multibeam vendor format
0012_20140419_104808_FK140418_EM710.all.mb58.gz 58.81MB Kongsberg multibeam vendor format
0013_20140419_114808_FK140418_EM710.all.mb58.gz 86.00MB Kongsberg multibeam vendor format
0014_20140419_124808_FK140418_EM710.all.mb58.gz 92.21MB Kongsberg multibeam vendor format
0015_20140419_134808_FK140418_EM710.all.mb58.gz 19.43MB Kongsberg multibeam vendor format
0016_20140419_140705_FK140418_EM710.all.mb58.gz 484.6KB Kongsberg multibeam vendor format
0017_20140419_140822_FK140418_EM710.all.mb58.gz 0.55MB Kongsberg multibeam vendor format
0018_20140419_141918_FK140418_EM710.all.mb58.gz 248.1KB Kongsberg multibeam vendor format
0019_20140419_150226_FK140418_EM710.all.mb58.gz 4.76MB Kongsberg multibeam vendor format
0020_20140419_163128_FK140418_EM710.all.mb58.gz 63.67MB Kongsberg multibeam vendor format
0021_20140419_173129_FK140418_EM710.all.mb58.gz 118.20MB Kongsberg multibeam vendor format
0022_20140419_183128_FK140418_EM710.all.mb58.gz 242.25MB Kongsberg multibeam vendor format
0023_20140419_193129_FK140418_EM710.all.mb58.gz 112.36MB Kongsberg multibeam vendor format
0024_20140419_203129_FK140418_EM710.all.mb58.gz 31.04MB Kongsberg multibeam vendor format
0025_20140419_225320_FK140418_EM710.all.mb58.gz 109.18MB Kongsberg multibeam vendor format
0026_20140419_235320_FK140418_EM710.all.mb58.gz 146.95MB Kongsberg multibeam vendor format
0027_20140420_005651_FK140418_EM710.all.mb58.gz 358.27MB Kongsberg multibeam vendor format
0028_20140420_015653_FK140418_EM710.all.mb58.gz 286.43MB Kongsberg multibeam vendor format
0029_20140420_025652_FK140418_EM710.all.mb58.gz 39.04MB Kongsberg multibeam vendor format
0030_20140420_055321_FK140418_EM710.all.mb58.gz 223.23MB Kongsberg multibeam vendor format
0031_20140420_100153_FK140418_EM710.all.mb58.gz 140.22MB Kongsberg multibeam vendor format
0032_20140420_110153_FK140418_EM710.all.mb58.gz 256.79MB Kongsberg multibeam vendor format
0033_20140420_120153_FK140418_EM710.all.mb58.gz 203.78MB Kongsberg multibeam vendor format
0034_20140420_130154_FK140418_EM710.all.mb58.gz 104.02MB Kongsberg multibeam vendor format
0035_20140420_140154_FK140418_EM710.all.mb58.gz 120.90MB Kongsberg multibeam vendor format
0036_20140420_150154_FK140418_EM710.all.mb58.gz 284.82MB Kongsberg multibeam vendor format
0037_20140420_160153_FK140418_EM710.all.mb58.gz 227.51MB Kongsberg multibeam vendor format
0038_20140420_170154_FK140418_EM710.all.mb58.gz 92.02MB Kongsberg multibeam vendor format
0039_20140420_180154_FK140418_EM710.all.mb58.gz 35.47MB Kongsberg multibeam vendor format
0040_20140420_203113_FK140418_EM710.all.mb58.gz 388.63MB Kongsberg multibeam vendor format
0041_20140420_213113_FK140418_EM710.all.mb58.gz 316.97MB Kongsberg multibeam vendor format
0042_20140420_223113_FK140418_EM710.all.mb58.gz 36.65MB Kongsberg multibeam vendor format

Metadata Files: 3

Files File Size Description
FK140418_Multibeam.xml NGDC created ISO metadata
em302_bag_info.tar.gz 3.3KB Additional cruise information
em710_bag_info.tar.gz 2.8KB Additional cruise information